date,batt_volt,AirTemp_C,Solar_kW,RH,Manual_BP,StationID,WS_ms,PTemp,WS_15min_max,Prog_Sig,Solar_Raw,Bar_mbar,Solar_MJ,Max_WS_2min,Pressure_Raw,Rain_mm,WD_15min_ave,Max_AirTemp_1min,WindDir,WS_15min_med,WS_15min_ave,Elevation_Correction
2022-09-01T00:09:35Z,13.12012,21.32747,0.0,100.1016,0,1156,2.254,20.90688,3.0968,43690,0.0,1003.826,0.0,3.097,1002.025,0,118.601782429,21.33,121.9238,1.6072,1.63515029349,1.80078
2022-09-01T00:24:33Z,13.11461,21.2936,0.0,100.1016,0,1156,1.8424,21.06955,3.0968,43690,0.0,1003.826,0.0,2.43,1002.025,0,122.047289342,21.4,125.9871,1.7444,1.76724733609,1.80078
2022-09-01T00:39:34Z,13.12012,21.15815,0.0,100.1016,0,1156,1.0192,21.12377,2.058,43690,0.0,1003.826,0.0,1.725,1002.025,0,121.924928187,21.23,110.2387,1.2348,1.23039288994,1.80078
2022-09-01T00:54:33Z,13.11461,21.32747,0.0,100.1016,0,1156,0.8624,21.25933,2.4696,43690,0.0,1003.826,0.0,1.176,1002.025,0,102.755453592,21.36,85.73857,0.9015999,0.885479277515,1.80078
2022-09-01T01:09:34Z,13.10909,21.32747,0.0,100.1355,0,1156,0.784,21.42425,3.3908,43690,0.0,1004.395,0.0,3.391,1002.594,0,108.321459147,21.36,113.4606,1.1564,1.14074318757,1.80078
2022-09-01T01:24:35Z,13.10857,21.08859,0.0,100.0647,0,1156,1.8816,21.5598,3.3124,43690,0.0,1004.395,0.0,2.822,1002.594,0,120.750343682,21.16,141.2504,1.9012,1.89296567988,1.80078
2022-09-01T01:39:34Z,13.10766,20.64525,0.0,99.958,0,1156,2.1756,21.58692,2.7244,43690,0.0,1004.395,0.0,2.372,1002.594,0,146.974483935,20.75,157.3509,1.9208,1.91186982249,1.80078
2022-09-01T01:54:38Z,13.10771,20.57878,0.0,99.99394,0,1156,2.45,21.5327,2.7832,43690,0.0,1004.395,0.0,2.136,1002.594,0,147.464368818,20.65,145.3332,2.1462,2.10388705882,1.80078
2022-09-01T02:09:35Z,13.11414,19.6666,0.0,99.8281,0,1156,4.4884,21.39714,7.1344,43690,0.0,1005.024,0.0,5.664,1003.223,0,146.710078367,19.94,158.2973,5.0372,4.95497276331,1.80078
2022-09-01T02:24:37Z,13.11446,19.43106,0.0,99.83062,0,1156,4.4492,21.12377,5.3704,43690,0.0,1005.024,0.0,5.37,1003.223,0,157.009223215,19.46,162.9176,4.3414,4.31914823529,1.80078
2022-09-01T02:39:38Z,13.12012,18.92313,0.0,99.89842,0,1156,4.1944,20.85266,5.0568,43690,0.0,1005.024,0.0,4.273,1003.223,0,146.211520735,19.06,141.2066,3.8612,3.88160705882,1.80078
2022-09-01T02:54:40Z,13.12564,18.8554,0.0,99.96614,0,1156,1.96,20.61092,3.9984,43690,0.0,1005.024,0.0,2.489,1003.223,0,148.668022379,18.89,154.3823,2.2932,2.39684941118,1.80078
2022-09-01T03:09:35Z,13.13115,18.78767,0.0,99.96614,0,1156,2.0776,20.4234,2.2736,43690,0.0,1005.045,0.0,2.078,1003.244,0,157.541690796,18.92,148.4917,1.5288,1.55350295562,1.80078
2022-09-01T03:24:36Z,13.13115,18.61835,0.0,100.0,0,1156,3.6456,20.263,4.3316,43690,0.0,1005.045,0.0,4.332,1003.244,0,149.824431368,18.69,144.9092,2.5676,2.66882823529,1.80078
2022-09-01T03:39:36Z,13.13667,18.24585,0.0,99.89842,0,1156,4.3316,20.07547,4.9196,43690,0.0,1005.045,0.0,4.508,1003.244,0,148.329918273,18.42,149.4534,3.822,3.73887294118,1.80078
2022-09-01T03:54:37Z,13.13667,17.97494,0.0,99.83068,0,1156,5.5076,19.89022,6.8012,43690,0.0,1005.045,0.0,6.684,1003.244,0,149.176107318,18.14,149.0207,4.8608,5.07639997647,1.80078
2022-09-01T04:09:37Z,13.14218,17.50085,0.0,99.86454,0,1156,6.6248,19.653,7.2912,43690,0.0,1005.045,0.0,5.86,1003.244,0,156.718146933,17.64,155.1517,5.4488,5.41179056471,1.80078
2022-09-01T04:24:41Z,13.14862,17.33509,0.0,99.87074,0,1156,4.0964,19.36381,7.3892,43690,0.0,1005.045,0.0,4.743,1003.244,0,156.312249415,17.44,156.6281,5.3508,5.28324777987,1.80078
2022-09-01T04:40:26Z,13.16166,17.34147,0.0,99.98347,0,1156,2.9988,19.10174,5.0176,43690,0.0,1005.045,0.0,3.136,1003.244,0,156.343256553,17.38,153.8079,3.3516,3.39737245509,1.80078
2022-09-01T04:55:25Z,13.16262,17.41681,0.0,99.99671,0,1156,1.5288,18.921,3.6064,43690,0.0,1005.045,0.0,2.078,1003.244,0,155.943238491,17.45,153.3232,2.058,2.15614848485,1.80078
2022-09-01T05:10:25Z,13.16305,17.41852,0.0,100.0336,0,1156,1.2152,18.81707,1.6072,43690,0.0,1006.176,0.0,1.607,1004.375,0,143.682642737,17.42,145.487,1.0878,1.02139057529,1.80078
2022-09-01T05:25:25Z,13.16318,17.28318,0.0,100.0677,0,1156,1.9992,18.76511,2.548,43690,0.0,1006.176,0.0,2.548,1004.375,0,157.124556132,17.49,157.5132,1.5582,1.58045175941,1.80078
2022-09-01T05:40:25Z,13.16318,17.3848,0.0,100.1016,0,1156,2.8224,18.71315,2.9008,43690,0.0,1006.176,0.0,2.901,1004.375,0,156.880009573,17.49,149.8888,2.4108,2.4116,1.80078
2022-09-01T05:55:25Z,13.16318,17.28318,0.0,100.0677,0,1156,1.7444,18.6883,2.94,43690,0.0,1006.176,0.0,2.509,1004.375,0,147.098333982,17.35,166.0755,2.254,2.25464052288,1.80078
2022-09-01T06:10:25Z,13.16318,17.41868,0.0,100.1355,0,1156,5.3704,18.6883,5.9192,43690,0.0,1005.866,0.0,5.723,1004.065,0,155.829507477,17.49,142.0721,3.5672,3.72676705882,1.80078
2022-09-01T06:25:25Z,13.16318,17.2493,0.0,100.1355,0,1156,4.606,18.63633,6.1348,43690,0.0,1005.866,0.0,4.92,1004.065,0,146.017798825,17.42,144.8621,4.8804,4.86598823529,1.80078
2022-09-01T06:40:25Z,13.16318,17.1138,0.0,100.1355,0,1156,4.508,18.60923,5.3312,43690,0.0,1005.866,0.0,5.155,1004.065,0,149.017946826,17.25,145.6798,4.5374,4.41311294118,1.80078
2022-09-01T06:55:25Z,13.16318,17.07993,0.0,100.1016,0,1156,4.6452,18.53241,5.0568,43690,0.0,1005.866,0.0,4.978,1004.065,0,150.773175825,17.15,153.1358,4.2924,4.22737411765,1.80078
2022-09-01T07:10:24Z,13.16869,17.07993,0.0,100.1016,0,1156,2.8616,18.48045,6.37,43690,0.0,1006.028,0.0,5.214,1004.228,0,152.038282653,17.08,153.9776,5.2136,4.96986823529,1.80078
2022-09-01T07:25:28Z,13.16869,16.8428,0.0,100.1355,0,1156,3.8612,18.37878,3.9396,43690,0.0,1006.028,0.0,2.94,1004.228,0,154.834055807,16.91,148.9989,2.7832,2.75523274854,1.80078
2022-09-01T07:40:26Z,13.16869,16.8428,0.0,100.1355,0,1156,5.9584,18.30197,6.3112,43690,0.0,1006.028,0.0,6.194,1004.228,0,148.972026764,16.94,149.047,5.0078,4.93943058824,1.80078
2022-09-01T07:55:25Z,13.17421,16.74117,0.0,100.1016,0,1156,5.7232,18.22515,7.212799,43690,0.0,1006.028,0.0,7.134,1004.228,0,153.570875774,16.81,152.4383,5.8898,5.85382821176,1.80078
2022-09-01T08:10:25Z,13.17421,16.5718,0.0,100.1016,0,1156,4.5864,18.09637,7.2912,43690,0.0,1006.272,0.0,6.311,1004.471,0,157.966862,16.64,161.8184,5.5272,5.3935741,1.80078
2022-09-01T08:25:25Z,13.17973,16.47017,0.0,100.1016,0,1156,6.7032,17.99471,7.7224,43690,0.0,1006.272,0.0,7.174,1004.471,0,154.9876378,16.5,151.2357,5.684,5.69829644706,1.80078
2022-09-01T08:40:24Z,13.17973,16.47017,0.0,100.1016,0,1156,6.5072,17.89304,8.5848,43690,0.0,1006.272,0.0,7.860001,1004.471,0,152.840407125,16.5,147.2432,6.6052,6.64059515882,1.80078
2022-09-01T08:55:25Z,13.18525,16.1653,0.0,100.1016,0,1156,5.88,17.76652,8.134,43690,0.0,1006.272,0.0,7.958,1004.471,0,153.890858493,16.3,164.4881,6.174,6.12903520588,1.80078
2022-09-01T09:10:25Z,13.18525,16.06367,0.0,100.0677,0,1156,6.6836,17.66486,8.0164,43690,0.0,1006.923,0.0,6.625,1005.122,0,155.994836072,16.13,156.7916,5.978,5.99598584706,1.80078
2022-09-01T09:25:26Z,13.18525,15.96204,0.0,100.1016,0,1156,5.5468,17.53834,8.192799,43690,0.0,1006.923,0.0,8.189999,1005.122,0,154.117386789,16.06,144.7178,6.5071995,6.51192689412,1.80078
2022-09-01T09:40:26Z,13.19076,15.89429,0.0009640842,100.0677,0,1156,5.0764,17.43667,7.8204,43690,0.0674859,1006.923,4.820422e-06,5.586,1005.122,0,151.681468814,15.96,160.3031,5.9192,5.97304227647,1.80078
2022-09-01T09:55:26Z,13.19076,15.89525,0.002410152,100.0694,0,1156,6.1152,17.36212,7.212799,43690,0.1687106,1006.923,1.205076e-05,7.213,1005.122,0,152.054906929,16.0,158.8627,5.782,5.76401408824,1.80078
2022-09-01T10:10:27Z,13.19634,15.79348,0.01060484,100.1369,0,1156,5.2724,17.28756,7.0364,43690,0.7423391,1007.585,5.302422e-05,6.135,1005.784,0,152.122639581,15.93,148.1834,5.2528,5.27101645882,1.80078
2022-09-01T10:25:27Z,13.19641,15.99682,0.017353,100.1032,0,1156,5.5468,17.26045,6.2328,43690,1.21471,1007.585,8.676502e-05,6.037,1005.784,0,155.576515123,16.03,150.8293,5.194,5.16483058824,1.80078
2022-09-01T10:40:27Z,13.19139,15.86102,0.02940512,100.1366,0,1156,2.2932,17.28756,5.9192,43690,2.058359,1007.585,0.0001470256,3.626,1005.784,0,156.656850234,15.96,172.5953,3.5182,3.78452941176,1.80078
2022-09-01T10:55:27Z,13.19078,15.99764,0.05205902,100.0708,0,1156,3.0968,17.33727,4.3708,43690,3.644132,1007.585,0.0002602951,3.587,1005.784,0,160.797118033,16.07,160.4524,3.1752,3.16367058824,1.80078
2022-09-01T11:10:28Z,13.1854,16.19945,0.06844814,100.1021,0,1156,3.6652,17.48864,4.6256,43690,4.79137,1007.99,0.0003422407,4.528,1006.189,0,159.885007902,16.37,163.0939,3.6456,3.59533176471,1.80078
2022-09-01T11:25:29Z,13.17974,16.43637,0.1744943,100.1017,0,1156,3.6064,17.76652,3.822,43690,12.2146,1007.99,0.0008724716,3.195,1006.189,0,159.092781241,16.54,160.2071,2.891,2.92051529412,1.80078
2022-09-01T11:40:30Z,13.16319,16.36859,0.2458344,100.1017,0,1156,3.3516,18.37878,3.8416,43690,17.20841,1007.99,0.001229172,3.685,1006.189,0,156.89131567,16.54,156.6715,3.0184,3.02716235294,1.80078
2022-09-01T11:55:31Z,13.14112,16.84284,0.1373766,100.1355,0,1156,2.254,19.46774,3.6064,43690,9.616361,1007.99,0.0006868829,3.077,1006.189,0,154.42171332,16.98,141.038,2.6852,2.67574588235,1.80078
2022-09-01T12:10:31Z,13.11517,17.23162,0.4318781,100.0707,0,1156,2.4108,20.79844,3.038,43690,30.23147,1008.484,0.00215939,3.038,1006.683,0,149.537748084,17.4,148.3999,1.8522,1.87514352824,1.80078
2022-09-01T12:25:32Z,13.08705,17.56863,0.2554101,100.1356,0,1156,2.3716,22.16755,3.4888,43690,17.87871,1008.484,0.001277051,3.469,1006.683,0,151.619541553,17.67,141.7597,2.7244,2.73235529412,1.80078
2022-09-01T12:40:28Z,13.06076,17.88854,0.5127007,100.0693,0,1156,3.626,23.26554,3.7828,43690,35.88905,1008.484,0.002563504,3.665,1006.683,0,149.300948556,17.89,142.8435,2.842,2.8127739645,1.80078
2022-09-01T12:55:30Z,13.05504,18.53083,0.5520732,99.76307,0,1156,1.6856,24.18957,3.8612,43690,38.64512,1008.484,0.002760366,2.724,1006.683,0,144.189250973,18.73,149.5712,2.6068,2.74019529412,1.80078
2022-09-01T13:10:33Z,13.04277,18.3939,0.5934548,98.94804,0,1156,1.568,24.9532,2.8224,43690,41.54184,1009.262,0.002967274,1.999,1007.461,0,143.245740116,18.8,129.4263,1.7052,1.71962264025,1.80078
2022-09-01T13:25:33Z,13.03036,18.62122,0.631506,97.07025,0,1156,1.2348,25.6129,1.6072,43690,44.20542,1009.262,0.00315753,1.411,1007.461,0,129.796278233,19.06,134.091,1.0192,0.968355282353,1.80078
2022-09-01T13:40:33Z,13.02321,19.56047,0.668115,89.88216,0,1156,0.7056,26.06701,2.4304,43690,46.76805,1009.262,0.003340575,1.764,1007.461,0,132.992414288,19.46,160.7182,1.4112,1.37176940824,1.80078
2022-09-01T13:55:33Z,13.01755,20.67685,0.6993558,81.08294,0,1156,1.6268,26.59116,1.764,43690,48.9549,1009.262,0.003496779,1.215,1007.461,0,123.951948656,20.68,132.0769,1.1368,1.09955999294,1.80078
2022-09-01T14:10:34Z,13.00653,21.01525,0.729169,77.12355,0,1156,1.3916,27.18308,1.96,43690,51.04184,1008.684,0.003645846,1.627,1006.883,0,134.35301528,21.22,143.73,1.2348,1.20378587647,1.80078
2022-09-01T14:25:34Z,12.99207,21.50429,0.7541102,71.92416,0,1156,1.078,27.72078,2.0776,43690,52.78772,1008.684,0.003770551,1.725,1006.883,0,130.271550006,21.98,123.534,1.2054,1.18211057941,1.80078
2022-09-01T14:40:34Z,12.98563,21.36681,0.7757544,75.37224,0,1156,1.47,28.23363,2.352,43690,54.30281,1008.684,0.003878772,1.921,1006.883,0,128.530585447,21.33,130.9275,1.5876,1.55024470412,1.80078
2022-09-01T14:55:29Z,12.98009,22.61842,0.791163,76.42086,0,1156,0.6076,28.62449,2.4304,43690,55.38141,1008.684,0.003955815,2.43,1006.883,0,127.471987473,22.52,104.8187,1.3916,1.34973254201,1.80078
2022-09-01T15:10:31Z,12.98009,21.16375,0.7406017,76.96213,0,1156,1.6268,28.5906,3.2928,43690,51.84212,1008.269,0.003703009,3.293,1006.468,0,82.1903944488,21.47,77.74933,2.4304,2.31084,1.80078
2022-09-01T15:25:33Z,12.99111,22.00949,0.8282412,78.34914,0,1156,2.4892,28.29915,3.43,43690,57.97689,1008.269,0.004141206,3.038,1006.468,0,80.7036275083,22.01,83.0335,2.205,2.18586117353,1.80078
2022-09-01T15:40:34Z,12.99111,22.11097,0.8378719,74.8647,0,1156,2.744,28.17038,3.5868,43690,58.65104,1008.269,0.00418936,2.862,1006.468,0,81.8694961846,22.25,78.54195,2.6852,2.62962823529,1.80078
2022-09-01T15:55:35Z,12.99111,22.92288,0.8436504,73.34237,0,1156,2.4892,28.07322,3.332,43690,59.05553,1008.269,0.004218252,2.999,1006.468,0,81.2327564566,22.99,79.93506,2.3912,2.32098588176,1.80078
2022-09-01T16:10:30Z,12.99662,22.78756,0.8455766,71.07579,0,1156,1.9208,28.04159,2.9204,43690,59.19036,1008.756,0.004227883,2.391,1006.955,0,80.9238271412,22.82,83.70603,2.1364,2.06275502604,1.80078
2022-09-01T16:25:33Z,12.99111,24.51287,0.8412427,64.91882,0,1156,0.0196,27.97608,2.5088,43690,58.88699,1008.756,0.004206214,1.509,1006.955,0,87.8549066669,24.34,121.2717,1.4504,1.40139999647,1.80078
2022-09-01T16:40:34Z,12.98009,25.39243,0.8378719,55.75103,0,1156,1.0192,28.17038,1.568,43690,58.65104,1008.756,0.00418936,1.568,1006.955,0,117.640481842,25.56,117.9571,0.7056,0.73730587,1.80078
2022-09-01T16:55:34Z,12.98009,24.5467,0.8306489,65.83222,0,1156,2.0384,28.55896,2.9204,43690,58.14542,1008.756,0.004153245,2.92,1006.955,0,122.786835734,24.75,120.8874,1.00939995,1.11673881,1.80078
2022-09-01T17:10:36Z,12.97458,24.07308,0.8190921,70.60218,0,1156,0.784,29.01759,2.1756,43690,57.33644,1008.431,0.00409546,1.529,1006.631,0,122.027574987,24.21,111.8562,1.1074,1.13922116765,1.80078
2022-09-01T17:25:37Z,12.96907,25.18946,0.8040982,64.17458,0,1156,0.5292,29.44911,1.5092,43690,56.28688,1008.431,0.004020491,1.294,1006.631,0,122.379615724,25.12,117.837,0.6664,0.708597639412,1.80078
2022-09-01T17:40:33Z,12.96243,24.77632,0.7823574,63.22034,0,1156,0.9015999,30.0207,1.7052,43690,54.76502,1008.431,0.003911787,1.372,1006.631,0,118.459191056,24.78,112.9966,0.9604,0.969910046746,1.80078
2022-09-01T17:55:35Z,12.9541,25.81218,0.7615778,57.59411,0,1156,1.1368,30.53355,1.9404,43690,53.31044,1008.431,0.003807889,1.94,1006.631,0,123.712560478,25.88,133.0245,1.0388,1.03810822,1.80078
2022-09-01T18:10:37Z,12.94818,25.0322,0.7399045,59.65512,0,1156,1.7836,31.12321,2.2148,43690,51.79331,1008.266,0.003699522,2.215,1006.465,0,128.140742518,25.03,122.8875,1.274,1.22419293235,1.80078
2022-09-01T18:25:33Z,12.94266,24.96452,0.7148401,54.14274,0,1156,1.4504,31.57958,1.9404,43690,50.0388,1008.266,0.0035742,1.509,1006.465,0,124.159855561,25.3,110.81,1.2936,1.23793135385,1.80078
2022-09-01T18:40:35Z,12.94266,24.79543,0.6830687,51.97838,0,1156,0.7252,31.79421,1.6464,43690,47.81481,1008.266,0.003415343,1.646,1006.465,0,120.621380746,24.86,125.0244,1.0192,1.02819292235,1.80078
2022-09-01T18:55:37Z,12.94266,25.47179,0.6527422,52.04602,0,1156,0.7252,31.79421,1.6464,43690,45.69195,1008.266,0.003263711,1.588,1006.465,0,122.410940339,25.84,118.4935,0.9015999,0.912322332353,1.80078
2022-09-01T19:10:37Z,12.93715,24.69398,0.6176019,53.63546,0,1156,1.1172,31.75806,1.6856,43690,43.23214,1008.91,0.00308801,1.686,1007.109,0,121.300625125,24.66,115.204,1.2152,1.17853646471,1.80078
2022-09-01T19:25:38Z,12.94266,24.28815,0.5795734,50.59184,0,1156,1.9992,31.57958,1.8424,43690,40.57014,1008.91,0.002897867,1.725,1007.109,0,122.786940047,24.52,123.4877,1.3524,1.33522117235,1.80078
2022-09-01T19:40:38Z,12.94817,24.76161,0.5377106,55.05582,0,1156,1.6464,31.29718,2.5284,43690,37.63974,1008.91,0.002688553,1.686,1007.109,0,127.263923639,24.8,116.4285,1.3916,1.38456705588,1.80078
2022-09-01T19:55:38Z,12.95367,23.6118,0.4592563,56.71291,0,1156,1.5092,30.98314,1.9992,43690,32.14794,1008.91,0.002296281,1.999,1007.109,0,123.053703473,23.81,120.8705,1.4112,1.38837175941,1.80078
2022-09-01T20:10:39Z,12.96491,22.87024,0.5112314,57.35768,0,1156,1.9796,30.36184,2.5284,43690,35.7862,1008.585,0.002556157,2.254,1006.784,0,121.884711444,22.97,124.2849,1.8228,1.81772705882,1.80078
2022-09-01T20:25:39Z,12.9793,23.86692,0.09533689,60.28117,0,1156,1.96,29.5824,2.4304,43690,6.673582,1008.585,0.0004766844,2.43,1006.784,0,130.237243827,23.97,143.6982,1.96,1.96184470588,1.80078
2022-09-01T20:40:39Z,12.99659,21.06216,0.1415711,68.74144,0,1156,1.568,28.3963,2.6068,43690,9.909979,1008.585,0.0007078556,1.862,1006.784,0,136.651581403,21.33,129.6541,1.9012,1.90442823529,1.80078
2022-09-01T20:55:39Z,13.01995,21.26865,0.3602283,71.9932,0,1156,2.1168,26.96393,2.9988,43690,25.21598,1008.585,0.001801142,2.999,1006.784,0,133.557357435,21.17,144.9384,2.205,2.17640705882,1.80078
2022-09-01T21:10:40Z,13.04498,20.47305,0.1676238,74.99065,0,1156,1.8816,25.76427,2.9204,43690,11.73366,1009.263,0.0008381187,2.607,1007.462,0,144.117287121,20.47,140.845,2.4108,2.39731058824,1.80078
2022-09-01T21:25:37Z,13.0576,21.26086,0.08959568,74.69763,0,1156,2.8028,24.74761,2.9792,43690,6.271698,1009.263,0.0004479784,2.901,1007.462,0,143.853402034,21.23,141.035,2.254,2.29493964497,1.80078
2022-09-01T21:40:39Z,13.06568,20.52587,0.03709072,73.32161,0,1156,2.0384,23.9275,3.0968,43690,2.596351,1009.263,0.0001854536,2.313,1007.462,0,151.872029213,20.63,152.8823,2.4696,2.45507294118,1.80078
2022-09-01T21:55:40Z,13.08259,20.18951,0.05348232,74.94914,0,1156,1.3132,23.01024,2.3324,43690,3.743762,1009.263,0.0002674116,2.332,1007.462,0,148.689394867,20.26,166.5638,1.8424,1.83582823529,1.80078
2022-09-01T22:10:41Z,13.09914,19.34325,0.0202381,78.60526,0,1156,1.1564,22.25113,2.4108,43690,1.416667,1009.018,0.0001011905,1.47,1007.217,0,156.829973177,19.48,160.6272,1.274,1.28126352,1.80078
2022-09-01T22:25:43Z,13.11275,18.98276,0.01734697,78.14708,0,1156,1.1368,21.42425,1.9992,43690,1.214288,1009.018,8.673482e-05,1.431,1007.217,0,175.601588327,18.95,194.9648,1.4406,1.36300705176,1.80078
2022-09-01T22:40:40Z,13.12559,18.68587,0.01253027,81.51003,0,1156,0.9995999,20.82555,1.8228,43690,0.8771189,1009.018,6.265135e-05,1.548,1007.217,0,166.821189285,18.75,162.7729,1.274,1.25695147396,1.80078
2022-09-01T22:55:43Z,13.13115,18.61835,0.003373435,78.86895,0,1156,1.1956,20.39629,1.5288,43690,0.2361405,1009.018,1.686718e-05,1.49,1007.217,0,175.77668415,18.65,174.7951,0.9015999,0.943912918824,1.80078
2022-09-01T23:10:42Z,13.14218,18.00881,0.0004820116,82.22147,0,1156,1.1172,19.83825,1.666,43690,0.03374082,1009.352,2.410058e-06,1.372,1007.552,0,186.274278204,18.31,208.9367,1.2544,1.23711952071,1.80078
2022-09-01T23:25:41Z,13.15501,17.57608,0.0,86.12705,0,1156,0.7644,19.3367,1.5288,43690,0.0,1009.352,0.0,0.804,1007.552,0,178.585288421,17.68,39.21982,0.9408,0.907746726627,1.80078
2022-09-01T23:40:44Z,13.15721,17.41682,0.0,86.65028,0,1156,0.0196,18.97297,1.1368,43690,0.0,1009.352,0.0,0.627,1007.552,0,46.8813449544,17.59,65.0331,0.49,0.46900827929,1.80078
2022-09-01T23:55:40Z,13.16317,17.3509,0.0,87.43218,0,1156,0.3724,18.6883,0.784,43690,0.0,1009.352,0.0,0.02,1007.552,0,214.018831575,17.55,177.7885,0.0196,0.163333333333,1.80078
2022-09-02T00:10:45Z,13.17421,17.28318,0.0,88.75336,0,1156,0.0196,18.48045,0.9604,43690,0.0,1009.443,0.0,0.725,1007.642,0,182.064645895,17.35,181.252,0.3136,0.284953843787,1.80078
2022-09-02T00:25:41Z,13.17421,17.41868,0.0,88.34686,0,1156,2.1168,18.35393,3.3124,43690,0.0,1009.443,0.0,2.901,1007.642,0,172.404076257,17.42,185.8699,1.7444,1.61886666012,1.80078
2022-09-02T00:40:43Z,13.17421,17.65581,0.0,87.63547,0,1156,2.7636,18.27711,3.6064,43690,0.0,1009.443,0.0,3.567,1007.642,0,163.293921225,17.76,144.1646,2.3912,2.36127810651,1.80078
2022-09-02T00:55:45Z,13.17421,17.68968,0.0,87.39834,0,1156,4.3316,18.32682,5.2332,43690,0.0,1009.443,0.0,5.233,1007.642,0,146.528006052,17.76,138.7289,3.4006,3.45349487179,1.80078
2022-09-02T01:10:43Z,13.17421,17.72356,0.0,86.31433,0,1156,2.7832,18.32682,4.8608,43690,0.0,1010.825,0.0,3.469,1009.024,0,140.25486843,17.76,134.0389,3.528,3.5572260355,1.80078
2022-09-02T01:25:44Z,13.17973,17.14768,0.0,86.65309,0,1156,2.6264,18.07152,3.8416,43690,0.0,1010.825,0.0,3.116,1009.024,0,132.820436787,17.25,144.9583,2.8812,2.86183195266,1.80078
2022-09-02T01:40:43Z,13.19076,17.01218,0.0,85.33194,0,1156,4.41,17.56319,4.8804,43690,0.0,1010.825,0.0,4.488,1009.024,0,136.174642741,17.08,133.8225,4.0376,3.98668639053,1.80078
2022-09-02T01:55:43Z,13.19632,16.84327,0.0,86.04406,0,1156,5.5468,17.08649,5.7624,43690,0.0,1010.825,0.0,5.527,1009.024,0,141.3870129,16.95,149.2166,4.0376,4.14777751479,1.80078
2022-09-02T02:10:42Z,13.20732,16.81001,0.0,87.33226,0,1156,5.6252,16.78601,6.3504,43690,0.0,1010.841,0.0,5.488,1009.04,0,146.339528211,16.81,142.3875,5.1744,5.19017278107,1.80078
2022-09-02T02:25:46Z,13.20928,16.61616,0.0,89.34579,0,1156,6.2328,16.58719,6.2916,43690,0.0,1010.841,0.0,5.743,1009.04,0,145.779800743,16.72,145.7309,5.096,5.0825769697,1.80078
2022-09-02T02:40:47Z,13.21164,16.59013,0.0,89.73093,0,1156,5.8604,16.38838,6.7228,43690,0.0,1010.841,0.0,6.311,1009.04,0,144.530019781,16.66,146.136,5.7232,5.64387763529,1.80078
2022-09-02T02:55:47Z,13.21731,16.62486,0.0,89.42729,0,1156,6.781599,16.24153,7.467599,43690,0.0,1010.841,0.0,7.213,1009.04,0,144.84201994,16.69,150.2524,6.4092,6.35996931765,1.80078
2022-09-02T03:10:48Z,13.21731,16.38766,0.0,90.57946,0,1156,4.8216,16.14212,7.663599,43690,0.0,1010.916,0.0,6.252,1009.116,0,146.927295135,16.62,139.4497,5.9878,6.01616231176,1.80078
2022-09-02T03:25:49Z,13.22283,16.42155,0.0,91.62995,0,1156,5.4488,16.06757,7.8792,43690,0.0,1010.916,0.0,7.879,1009.116,0,147.594770018,16.49,145.1277,6.389599,6.43122101765,1.80078
2022-09-02T03:40:49Z,13.22283,16.48932,0.0,92.91765,0,1156,7.0756,15.99527,7.7812,43690,0.0,1010.916,0.0,7.252,1009.116,0,150.568435106,16.42,147.8705,6.4777995,6.30635753529,1.80078
2022-09-02T03:55:45Z,13.22283,16.31989,0.0,93.73094,0,1156,6.8208,15.94557,7.8008,43690,0.0,1010.916,0.0,7.076,1009.116,0,153.855074266,16.39,164.3514,6.1544,6.21644727219,1.80078
2022-09-02T04:10:47Z,13.22283,16.18434,0.0,94.23923,0,1156,2.7244,15.87327,6.9384,43690,0.0,1012.38,0.0,2.724,1010.58,0,159.765363434,16.32,165.7228,4.4688,4.24593647059,1.80078
2022-09-02T04:25:48Z,13.22835,15.74381,0.0,94.47644,0,1156,1.6072,15.70157,3.3908,43690,0.0,1012.38,0.0,2.509,1010.58,0,170.186082397,15.91,166.0356,1.911,1.97763999882,1.80078
2022-09-02T04:40:49Z,13.23939,15.40495,0.0,94.74754,0,1156,1.6072,15.38527,2.1168,43690,0.0,1012.38,0.0,2.117,1010.58,0,167.562384948,15.61,176.1887,1.3524,1.40024705529,1.80078
2022-09-02T04:55:49Z,13.23939,15.50661,0.0,93.83259,0,1156,1.96,15.14128,2.1756,43690,0.0,1012.38,0.0,1.94,1010.58,0,191.624003879,15.57,197.9146,1.6856,1.70116470588,1.80078
2022-09-02T05:10:49Z,13.24509,15.64285,0.0,89.36066,0,1156,2.2736,14.99669,2.842,43690,0.0,1012.47,0.0,2.724,1010.669,0,192.515446978,15.64,195.0058,2.0972,2.10942117647,1.80078
2022-09-02T05:25:49Z,13.25218,15.20824,0.0,88.59076,0,1156,0.7056,14.80465,2.9596,43690,0.0,1012.47,0.0,2.254,1010.669,0,194.467332457,15.41,201.1627,1.9698,1.89785647,1.80078
2022-09-02T05:40:48Z,13.25814,15.24476,0.0,88.25604,0,1156,0.5684,14.66005,2.548,43690,0.0,1012.47,0.0,0.7640001,1010.669,0,165.026949093,15.31,48.03108,0.7056,0.844529406471,1.80078
2022-09-02T05:55:49Z,13.25783,14.97372,0.0,88.93406,0,1156,1.7836,14.54031,2.1168,43690,0.0,1012.47,0.0,1.705,1010.669,0,153.844802352,15.04,180.7907,0.784,0.844990584118,1.80078
2022-09-02T06:10:49Z,13.2637,14.73553,0.0,89.0342,0,1156,1.2152,14.34828,2.352,43690,0.0,1012.946,0.0,2.372,1011.145,0,190.351463598,14.8,38.11626,1.5484,1.53790823176,1.80078
2022-09-02T06:25:49Z,13.25819,15.17546,0.0,82.76318,0,1156,1.2936,14.22854,3.7044,43690,0.0,1012.946,0.0,3.704,1011.145,0,202.619332914,15.31,183.0473,2.3422,2.36791058765,1.80078
2022-09-02T06:40:50Z,13.26412,15.2789,0.0,82.02019,0,1156,1.1368,14.1811,3.7436,43690,0.0,1012.946,0.0,3.744,1011.145,0,187.879020395,15.31,142.6501,1.6072,1.71169397229,1.80078
2022-09-02T06:55:48Z,13.25865,15.37841,0.0,80.76301,0,1156,0.9015999,14.20594,2.842,43690,0.0,1012.946,0.0,2.254,1011.145,0,180.234302479,15.48,197.7243,1.176,1.36771763613,1.80078
2022-09-02T07:10:50Z,13.26922,14.73756,0.0,82.29274,0,1156,1.2152,14.0862,1.9992,43690,0.0,1013.843,0.0,1.686,1012.043,0,127.889839236,14.94,119.4065,0.735,0.719781167647,1.80078
2022-09-02T07:25:53Z,13.27132,14.40587,0.0,84.60875,0,1156,1.2936,13.82413,2.2344,43690,0.0,1013.843,0.0,1.98,1012.043,0,138.035060777,14.54,145.0301,1.2936,1.34564593851,1.80078
2022-09-02T07:40:52Z,13.28252,14.03389,0.0,85.5932,0,1156,1.0388,13.46943,3.0576,43690,0.0,1013.843,0.0,2.901,1012.043,0,154.163305852,14.24,158.3661,1.4896,1.55162823176,1.80078